Regional Weather Roundup
Issued by NWS

Home | Current Version | Previous Version | Text Only | Print | Product List | Glossary On
Versions: 1 2 3 4 5 6 7 8 9 10 11 12 13 14 15 16 17 18 19 20 21 22 23 24 25 26 27
000
ASUS42 KTBW 310016
RWRFL
FLORIDA REGIONAL WEATHER ROUNDUP
NATIONAL WEATHER SERVICE TAMPA BAY RUSKIN FL
800 PM EDT SAT JUL 30 2016

NOTE: "FAIR" INDICATES FEW OR NO CLOUDS BELOW 12,000 FEET WITH NO
SIGNIFICANT WEATHER AND/OR OBSTRUCTIONS TO VISIBILITY.

FLZ001>010-012>015-112-114-115-310100-
PANHANDLE FLORIDA

CITY           SKY/WX    TMP DP  RH WIND       PRES   REMARKS
PENSACOLA      PTCLDY    88  74  63 SW9       29.98F HX  96
PENSACOLA NAS  CLEAR     87  74  64 SW10      29.99R HX  95
MILTON NAS     PTCLDY    85  77  77 S7        29.98  HX  95
CRESTVIEW      CLEAR     88  73  61 S5        30.00S HX  95
DUKE FIELD     PTCLDY    90  72  55 SW8       29.98S HX  97
VALPARAISO     PTCLDY    87  76  69 SW6       29.99R HX  97
MARY ESTHER    PTCLDY    87  75  66 SW5       29.99R HX  96
TRI COUNTY     FAIR      79  76  90 CALM      30.01R
PANAMA CITY    FAIR      87  75  67 SW6       29.99R HX  96
TYNDALL AFB    PTCLDY    87  77  72 W6        30.00S HX  98
APALACHICOLA   PTCLDY    85  78  80 W5        30.00S HX  96

STATION/POSITION SKY/WX   TEMP    WIND        PRES    WAVE   SWELL
                          AIR SEA DIR/SP/G            HT/PER HT/PER
                          (F)     (DEG/KT/KT) (MB)    (FT/S) (FT/S)
30.1N   87.6W              86 89  220/  6/  8 1015.9R   1/ 3
29.2N   88.2W              87 89  120/  2/  4 1015.5F
28.8N   86.0W              86 89  270/  6/  8 1016.7R   1/ 4
PANAMA CITY BEAC              90  220/  7/  8 1016.1
TOWER C                    85     270/  9/ 12 1016.8S
28.5N   84.5W              87 91  280/  8/ 10 1016.6R   1/ 4

$$
FLZ011-016>038-118-127-128-134-139-239-310100-
NORTH FLORIDA

CITY           SKY/WX    TMP DP  RH WIND       PRES   REMARKS
MARIANNA       CLOUDY    81  73  76 CALM      29.99R
TALLAHASSEE    MOCLDY    86  74  67 SW3       30.00S
PERRY          PTCLDY    87  76  69 W6        30.01S HX  97
LIVE OAK       FAIR      88  75  66 W3        30.01F HX  97
CROSS CITY       N/A     88  75  65 W7        30.00S HX  97
LAKE CITY      FAIR      84  75  74 SE7       30.01S
GAINESVILLE    MOCLDY    83  74  74 S7        30.02R
WILLISTON      FAIR      90  77  66 SW6       30.03R HX 102
MAYPORT NAS    CLEAR     85  75  72 SE13      30.01R
JACKSONVILLE   CLOUDY    84  72  67 S6        30.00S
JAX NAS        MOCLDY    86  71  60 S7        30.02R
JAX CECIL      CLEAR     81  75  83 SW6       30.02R
FERNANDINA BEA FAIR      90  77  66 SE8       30.00R HX 102
ST AUGUSTINE   CLEAR     86  75  69 SW6       30.04R HX  95
PALM COAST     FAIR      80  72  76 CALM      30.03

STATION/POSITION SKY/WX   TEMP    WIND        PRES    WAVE   SWELL
                          AIR SEA DIR/SP/G            HT/PER HT/PER
                          (F)     (DEG/KT/KT) (MB)    (FT/S) (FT/S)
SHELL POINT      NOT AVBL
KEATON BEACH               86     250/  7/  8 1016.1R
CEDAR KEY                  86     290/  5/  7 1016.7S
FERNANDINA                    88  160/  9/ 14 1015.7
30.7N   81.3W                 86                N/A     2/ 3
MAYPORT                       87  150/  6/ 10 1016.1
31.4N   80.9W              86 87  170/ 16/ 19 1015.2R   2/ 3
ST AUGUSTINE               84 85  180/ 12/ 13 1017.8R

$$
FLZ040-043>046-052-053-057-058-063-144-310100-
INTERIOR CENTRAL FLORIDA

CITY           SKY/WX    TMP DP  RH WIND       PRES   REMARKS
OCALA          MOCLDY    84  75  74 CALM      30.03R
THE VILLAGES     N/A     81  79  94 CALM      29.94R
LEESBURG       CLOUDY    80  75  84 E6        30.04R
SANFORD        PTCLDY    79  74  84 S6        30.03R
ORLANDO EXEC   LGT RAIN  82  73  74 E9        30.04R
ORLANDO INTL   CLOUDY    82  72  71 SE5       30.04R
KISSIMMEE      CLOUDY    84  74  71 E8        30.05R
WINTER HAVEN   CLOUDY    84  73  69 SW3       30.04S
LAKELAND       PTCLDY    79  72  78 CALM      30.04S
BARTOW         MOCLDY    79  73  83 CALM      30.03S
OKEECHOBEE     CLEAR     81  73  78 E3        30.04R

$$
FLZ041-047-054-059-064-141-147-310100-
EAST CENTRAL FLORIDA

CITY           SKY/WX    TMP DP  RH WIND       PRES   REMARKS
DAYTONA BEACH  PTCLDY    85  76  74 VRB5      30.03R
NEW SMYRNA BEA PTCLDY    84  77  79 SE8       30.03S
JFK SPACE CTR  CLEAR     84  76  77 SE8       30.02R
TITUSVILLE     MOCLDY    84  79  84 SE12      30.04R HX  96
CAPE CANAVERAL CLEAR     85  77  78 SE12      30.01R HX  95
PATRICK AFB    CLEAR     85  79  81 E13       30.02R HX  97
MELBOURNE      CLEAR     85  77  77 SE12      30.02R HX  95
VERO BEACH     CLEAR     85  75  72 SE12      30.03R
FT PIERCE      CLEAR     85  75  72 SE13      30.02R
STUART         CLEAR     88  75  66 SE8       30.05R HX  97

STATION/POSITION SKY/WX   TEMP    WIND        PRES    WAVE   SWELL
                          AIR SEA DIR/SP/G            HT/PER HT/PER
                          (F)     (DEG/KT/KT) (MB)    (FT/S) (FT/S)
28.5N   80.2W              86 86  120/ 14/ 14 1016.7F
28.9N   78.5W              85 89  100/ 14/ 17 1017.4R
TRIDENT PIER                  86  100/  7/ 11 1016.6
28.4N   80.5W                 83                N/A     2/ 3
27.5N   80.2W                 84                N/A     2/ 3

$$
FLZ050-056-061-142-242-148-248-149-249-151-251-155-255-
160-260-310100-
WEST CENTRAL FLORIDA

CITY           SKY/WX    TMP DP  RH WIND       PRES   REMARKS
CRYSTAL RIVER  FAIR      86  75  70 W3        30.02R HX  95
INVERNESS      FAIR      86  79  79 CALM      30.03R HX  99
BROOKSVILLE    PTCLDY    82  78  88 CALM      30.03S
ZEPHYRHILLS    FAIR      75  69  80 W3        30.04R
CLEARWATER AIR FAIR      84  75  74 CALM      30.02R
ST PETE CLEARW PTCLDY    87  73  62 NE3       30.02R
TAMPA INTL     CLOUDY    85  76  74 CALM      30.03R
TAMPA EXEC     CLOUDY    86  73  66 CALM      30.03R
PLANT CITY     MOCLDY    82  72  69 S5        30.05S
MACDILL AFB    CLOUDY    85  77  75 E3        30.01S HX  95
PETER O KNIGHT CLOUDY    88  77  70 NE3       30.02S HX 100
ST PETERSBURG  CLOUDY    86  76  71 N5        30.00R HX  96
SARASOTA       CLOUDY    87  75  67 N6        30.00S HX  96
VENICE         NOT AVBL

STATION/POSITION SKY/WX   TEMP    WIND        PRES    WAVE   SWELL
                          AIR SEA DIR/SP/G            HT/PER HT/PER
                          (F)     (DEG/KT/KT) (MB)    (FT/S) (FT/S)
27.3N   84.2W                 90                N/A     1
CLEARWATER BEACH              90  350/  5/  5 1016.6
MIDDLE TAMPA BAY                  350/  2/  3 1016.8R
VENICE                     87 91  300/  4/  5 1015.9R

$$
FLZ066-069-070-075>078-162-262-165-265-310100-
SOUTHWEST FLORIDA AND KEYS

CITY           SKY/WX    TMP DP  RH WIND       PRES   REMARKS
PUNTA GORDA    CLOUDY    83  74  74 S7        30.04S
FT MYERS       CLOUDY    82  77  84 N6        30.02R
SOUTHWEST INTL CLOUDY    80  72  76 SE17G28   30.06R
NAPLES         TSTM      75  72  90 E7        30.04R FOG
MARCO ISLAND   MOCLDY   N/A N/A N/A N3        30.03F
MARATHON       PTCLDY    84  75  74 SE12G21   30.04R THUNDER
KEY WEST NAS   MOCLDY    85  74  69 E10       30.04R
KEY WEST INTL  CLOUDY    86  75  69 E7        30.04R HX  95

STATION/POSITION SKY/WX   TEMP    WIND        PRES    WAVE   SWELL
                          AIR SEA DIR/SP/G            HT/PER HT/PER
                          (F)     (DEG/KT/KT) (MB)    (FT/S) (FT/S)
NAPLES                        92              1016.7
26.0N   85.6W              86 89   10/  6/  8 1017.0R   1
DRY TORTUGAS               86      80/  7/  8 1017.3R
SAND KEY                   85     100/  8/ 10 1017.4R
LONG KEY                   84 90  120/ 14/ 16 1017.6R

$$
FLZ067-068-071>074-168-172>174-310100-
SOUTHEAST FLORIDA

CITY           SKY/WX    TMP DP  RH WIND       PRES   REMARKS
W PALM BEACH   MOCLDY    87  75  67 SE12      30.05R HX  96
BOCA RATON     CLEAR     84  75  74 SE8G18    30.04R
FT LAUDER-EXEC CLEAR     83  75  77 SE13      30.04R
FT LAUDERDALE  MOCLDY    85  76  74 SE17      30.04R
POMPANO BEACH  CLEAR     85  75  72 SE15      30.04R
PEMBROKE PINES PTCLDY    85  74  69 SE9       30.06R
OPA LOCKA      PTCLDY    85  74  69 SE14      30.05R
MIAMI          PTCLDY    85  73  67 E14       30.05R
WEST KENDALL   MOCLDY    85  74  69 SE8       30.05R
HOMESTEAD      PTCLDY    85  74  70 E8        30.04R

STATION/POSITION SKY/WX   TEMP    WIND        PRES    WAVE   SWELL
                          AIR SEA DIR/SP/G            HT/PER HT/PER
                          (F)     (DEG/KT/KT) (MB)    (FT/S) (FT/S)
PORT EVERGLADES            86     120/  9/ 13 1016.8R
VIRGINIA KEY                  91  120/ 10/ 13 1017.3
LAKE WORTH                        130/ 12/ 14   N/A
FOWEY ROCKS                81 85  120/ 20/ 20 1017.8R
SETTLEMENT POINT           84     140/  7/ 10 1017.8F

$$





USA.gov is the U.S. government's official web portal to all federal, state and local government web resources and services.